Weather History for Fort Lewis, WA

Change the Weather History Date:

Wednesday, February 13, 2013

  Actual Average Record
Temperature  
Mean Temperature 45 °F -  
Max Temperature 48 °F 48 °F 55 °F (2004)
Min Temperature 39 °F 31 °F 24 °F (2004)
Degree Days  
Heating Degree Days 20    
Moisture  
Dew Point 42 °F    
Average Humidity 86    
Maximum Humidity 95    
Minimum Humidity 71    
Precipitation  
Precipitation 0.00 in - - ()
Sea Level Pressure  
Sea Level Pressure 30.41 in    
Wind  
Wind Speed 7 mph (South)    
Max Wind Speed 13 mph    
Max Gust Speed 21 mph    
Visibility 10 miles    
Events      
Averages and records for this station are not official NWS values.
T = Trace of Precipitation, MM = Missing Value Source: NWS Daily Summary

Daily Weather History Graph

Daily Weather History Graph

Search for Another Location

Airport:

Trip Planner

Search our weather history database for the weather conditions in past years. The results will help you decide how hot, cold, wet, or windy it might be!

Date:

Astronomy

Feb. 13, 2013 Rise Set
Actual Time 7:17 AM PST 5:32 PM PST
Civil Twilight 6:46 AM PST 6:03 PM PST
Nautical Twilight 6:10 AM PST 6:39 PM PST
Astronomical Twilight 5:35 AM PST 7:14 PM PST
Moon 8:31 AM PST (2/13) 10:01 PM PST (2/13)
Length of Visible Light 11h 17m
Length of Day
10h 14m
Waxing Crescent, 14% of the Moon is Illuminated
Feb 13
Waxing Crescent
Feb 17
First Quarter
Feb 25
Full
Mar 4
Last Quarter
Mar 11
New

Hourly Weather History & Observations

Time (PST) Temp. Windchill Dew Point Humidity Pressure Visibility Wind Dir Wind Speed Gust Speed Precip Events Conditions
12:58 AM 46.8 °F - 44.1 °F 90% 30.35 in 10.0 mi South 12.7 mph 20.7 mph N/A   Overcast
1:38 AM 46.4 °F 42.9 °F 42.8 °F 87% 30.35 in 10.0 mi South 6.9 mph 17.3 mph N/A   Overcast
1:58 AM 46.9 °F - 43.7 °F 88% 30.37 in 10.0 mi South 10.4 mph - N/A   Overcast
2:03 AM 46.4 °F 42.4 °F 44.6 °F 93% 30.34 in 10.0 mi South 8.1 mph - N/A   Overcast
2:13 AM 46.4 °F 42.4 °F 42.8 °F 87% 30.35 in 10.0 mi South 8.1 mph - N/A   Overcast
2:23 AM 46.4 °F 41.9 °F 44.6 °F 93% 30.35 in 10.0 mi South 9.2 mph - N/A   Overcast
2:28 AM 46.4 °F 41.9 °F 44.6 °F 93% 30.35 in 10.0 mi South 9.2 mph - N/A   Overcast
2:33 AM 46.4 °F 41.5 °F 44.6 °F 93% 30.35 in 10.0 mi South 10.4 mph - N/A   Overcast
2:48 AM 46.4 °F 41.5 °F 44.6 °F 93% 30.35 in 9.0 mi South 10.4 mph - N/A   Overcast
2:58 AM 46.8 °F - 44.4 °F 92% 30.37 in 9.0 mi South 6.9 mph - N/A   Overcast
2:59 AM 46.4 °F 42.4 °F 44.6 °F 93% 30.35 in 9.0 mi South 8.1 mph - N/A   Overcast
3:04 AM 46.4 °F 41.5 °F 44.6 °F 93% 30.35 in 8.0 mi South 10.4 mph - N/A   Overcast
3:19 AM 46.4 °F 42.4 °F 44.6 °F 93% 30.36 in 10.0 mi South 8.1 mph - N/A   Overcast
3:58 AM 45.3 °F - 43.7 °F 94% 30.39 in 10.0 mi Calm Calm - N/A   Overcast
4:08 AM 44.6 °F - 42.8 °F 93% 30.37 in 10.0 mi SE 1.2 mph - N/A   Overcast
4:58 AM 45.0 °F 42.6 °F 41.7 °F 88% 30.40 in 10.0 mi South 4.6 mph - N/A   Overcast
5:13 AM 44.6 °F 40.2 °F 42.8 °F 93% 30.38 in 10.0 mi South 8.1 mph - N/A   Overcast
5:58 AM 43.7 °F 38.6 °F 40.6 °F 89% 30.40 in 10.0 mi South 9.2 mph - N/A   Overcast
6:58 AM 43.5 °F 38.3 °F 39.6 °F 86% 30.41 in 10.0 mi South 9.2 mph - N/A   Overcast
7:56 AM 42.8 °F 38.0 °F 39.2 °F 87% 30.41 in 10.0 mi South 8.1 mph - N/A   Clear
8:56 AM 44.6 °F 40.7 °F 39.2 °F 81% 30.42 in 10.0 mi South 6.9 mph - N/A   Overcast
9:56 AM 44.6 °F 41.4 °F 39.2 °F 81% 30.44 in 10.0 mi South 5.8 mph - N/A   Overcast
10:37 AM 46.4 °F 42.4 °F 39.2 °F 76% 30.45 in 10.0 mi South 8.1 mph - N/A   Overcast
10:56 AM 46.4 °F 42.4 °F 39.2 °F 76% 30.45 in 10.0 mi South 8.1 mph - N/A   Overcast
11:59 AM 48.2 °F - 39.2 °F 71% 30.45 in 10.0 mi Variable 5.8 mph - N/A   Overcast
12:59 PM 48.2 °F - 39.2 °F 71% 30.45 in 10.0 mi WSW 3.5 mph - N/A   Overcast
1:56 PM 48.2 °F - 39.2 °F 71% 30.42 in 10.0 mi WSW 3.5 mph - N/A   Overcast
2:15 PM 48.2 °F - 39.2 °F 71% 30.43 in 10.0 mi WSW 3.5 mph - N/A   Overcast
2:55 PM 48.2 °F - 41.0 °F 76% 30.44 in 7.0 mi WSW 5.8 mph - N/A   Overcast
3:55 PM 48.2 °F - 41.0 °F 76% 30.43 in 10.0 mi WSW 3.5 mph - N/A   Overcast
4:51 PM 46.4 °F 44.3 °F 41.0 °F 81% 30.44 in 10.0 mi WSW 4.6 mph - N/A   Overcast
4:56 PM 46.4 °F - 41.0 °F 81% 30.44 in 10.0 mi WSW 2.3 mph - N/A   Overcast
5:43 PM 46.4 °F - 41.0 °F 81% 30.45 in 10.0 mi Calm Calm - N/A   Overcast
5:58 PM 45.5 °F - 41.7 °F 87% 30.46 in 10.0 mi Calm Calm - N/A   Overcast
6:48 PM 42.8 °F - 41.0 °F 93% 30.45 in 10.0 mi WSW 1.2 mph - N/A   Overcast
6:58 PM 44.1 °F - 41.2 °F 90% 30.47 in 10.0 mi West 1.2 mph - N/A   Overcast
7:58 PM 44.6 °F 42.2 °F 41.2 °F 88% 30.47 in 10.0 mi SSE 4.6 mph - N/A   Overcast
8:58 PM 44.2 °F 41.8 °F 40.6 °F 87% 30.48 in 10.0 mi SSE 4.6 mph - N/A   Overcast
9:58 PM 43.2 °F 39.7 °F 40.6 °F 91% 30.48 in 10.0 mi SSE 5.8 mph - N/A   Overcast
10:58 PM 42.1 °F 40.2 °F 39.7 °F 91% 30.51 in 10.0 mi SSE 3.5 mph - N/A   Overcast
11:58 PM 39.9 °F 37.8 °F 38.7 °F 95% 30.53 in 10.0 mi SSE 3.5 mph - N/A   Overcast